QFA846 PANC-PAYA

Flight info

Callsign QFA846
Flight time 0h 57m
Altitude 35000
Route JOH J501 YAK
Aircraft B738/M-SDE2E3FGHIRWXY/LB1

Departure

Time 2026-04-23 09:21
Airport Ted Stevens Anchorage International Airport (PANC)

Arrival

Time 2026-04-23 10:18
Airport Yakutat Airport (PAYA)
Time Latitude Longitude Altitude Speed Heading
2026-04-23 08:56 61.17406 -149.98308 162 ft 0 kts 63°
2026-04-23 08:59 61.17385 -149.98392 162 ft 0 kts 63°
2026-04-23 09:01 61.17432 -149.98394 162 ft 0 kts 82°
2026-04-23 09:12 61.17430 -149.98417 162 ft 3 kts 82°
2026-04-23 09:12 61.17427 -149.98467 162 ft 3 kts 82°
2026-04-23 09:13 61.17423 -149.98516 162 ft 3 kts 82°
2026-04-23 09:13 61.17420 -149.98560 162 ft 3 kts 118°
2026-04-23 09:13 61.17430 -149.98561 162 ft 0 kts 187°
2026-04-23 09:16 61.17418 -149.98566 162 ft 7 kts 195°
2026-04-23 09:16 61.17358 -149.98638 162 ft 13 kts 212°
2026-04-23 09:16 61.17262 -149.98764 162 ft 17 kts 215°
2026-04-23 09:16 61.17207 -149.98868 162 ft 15 kts 229°
2026-04-23 09:17 61.17123 -149.98974 162 ft 5 kts 133°
2026-04-23 09:17 61.17121 -149.98859 162 ft 14 kts 88°
2026-04-23 09:17 61.17120 -149.98720 162 ft 14 kts 92°
2026-04-23 09:17 61.17118 -149.98431 162 ft 24 kts 89°
2026-04-23 09:18 61.17121 -149.98091 162 ft 23 kts 90°
2026-04-23 09:18 61.17123 -149.97774 162 ft 21 kts 82°
2026-04-23 09:18 61.17127 -149.97486 162 ft 19 kts 88°
2026-04-23 09:18 61.17129 -149.97233 162 ft 16 kts 92°
2026-04-23 09:19 61.17133 -149.97027 162 ft 13 kts 95°
2026-04-23 09:19 61.17132 -149.96995 162 ft 0 kts 98°
2026-04-23 09:19 61.17123 -149.96884 162 ft 16 kts 107°
2026-04-23 09:20 61.17048 -149.96805 162 ft 9 kts 179°
2026-04-23 09:20 61.16923 -149.96846 162 ft 22 kts 225°
2026-04-23 09:20 61.16862 -149.97122 162 ft 25 kts 246°
2026-04-23 09:20 61.16788 -149.97544 162 ft 37 kts 268°
2026-04-23 09:21 61.16786 -149.98360 162 ft 84 kts 268°
2026-04-23 09:21 61.16779 -149.99979 162 ft 140 kts 269°
2026-04-23 09:21 61.16784 -150.02261 325 ft 168 kts 271°
2026-04-23 09:21 61.16874 -150.04628 967 ft 160 kts 272°
2026-04-23 09:22 61.16957 -150.06806 1697 ft 144 kts 264°
2026-04-23 09:22 61.16621 -150.08797 2279 ft 155 kts 238°
2026-04-23 09:22 61.15922 -150.10481 3411 ft 156 kts 224°
2026-04-23 09:22 61.15180 -150.12208 4554 ft 169 kts 229°
2026-04-23 09:23 61.14164 -150.13590 5573 ft 184 kts 196°
2026-04-23 09:23 61.12845 -150.13405 6723 ft 203 kts 163°
2026-04-23 09:23 61.11717 -150.11397 7817 ft 232 kts 119°
2026-04-23 09:23 61.11123 -150.08300 9387 ft 243 kts 115°
2026-04-23 09:24 61.10519 -150.04843 10495 ft 267 kts 114°
2026-04-23 09:24 61.09880 -150.01062 11612 ft 290 kts 116°
2026-04-23 09:24 61.09203 -149.96973 12714 ft 305 kts 116°
2026-04-23 09:24 61.08524 -149.92810 13895 ft 309 kts 116°
2026-04-23 09:25 61.07825 -149.88558 14982 ft 315 kts 116°
2026-04-23 09:25 61.07105 -149.84216 16032 ft 325 kts 119°
2026-04-23 09:25 61.06364 -149.79775 17180 ft 329 kts 118°
2026-04-23 09:25 61.05611 -149.75268 18323 ft 335 kts 118°
2026-04-23 09:26 61.04843 -149.70687 19371 ft 341 kts 118°
2026-04-23 09:26 61.04059 -149.66027 20363 ft 347 kts 118°
2026-04-23 09:26 61.03261 -149.61288 21301 ft 353 kts 119°
2026-04-23 09:26 61.02445 -149.56463 22141 ft 359 kts 121°
2026-04-23 09:27 61.01616 -149.51568 23018 ft 363 kts 121°
2026-04-23 09:27 61.00779 -149.46626 23876 ft 367 kts 121°
2026-04-23 09:27 60.99927 -149.41626 24632 ft 372 kts 121°
2026-04-23 09:27 60.99063 -149.36569 25365 ft 377 kts 120°
2026-04-23 09:28 60.98188 -149.31458 26081 ft 380 kts 120°
2026-04-23 09:28 60.97302 -149.26298 26757 ft 384 kts 120°
2026-04-23 09:28 60.96405 -149.21082 27358 ft 389 kts 120°
2026-04-23 09:28 60.95490 -149.15804 27919 ft 394 kts 120°
2026-04-23 09:29 60.94568 -149.10476 28524 ft 397 kts 120°
2026-04-23 09:29 60.93636 -149.05102 29048 ft 401 kts 120°
2026-04-23 09:29 60.92693 -148.99678 29575 ft 404 kts 120°
2026-04-23 09:29 60.91741 -148.94221 30092 ft 407 kts 120°
2026-04-23 09:30 60.90778 -148.88726 30545 ft 411 kts 120°
2026-04-23 09:30 60.89802 -148.83182 31003 ft 414 kts 120°
2026-04-23 09:30 60.88818 -148.77602 31456 ft 416 kts 120°
2026-04-23 09:30 60.87826 -148.71995 31867 ft 420 kts 119°
2026-04-23 09:31 60.86820 -148.66328 32146 ft 427 kts 120°
2026-04-23 09:31 60.85794 -148.60574 32465 ft 431 kts 120°
2026-04-23 09:31 60.84769 -148.54809 32948 ft 430 kts 119°
2026-04-23 09:31 60.83739 -148.49032 33324 ft 433 kts 120°
2026-04-23 09:32 60.82697 -148.43226 33643 ft 436 kts 120°
2026-04-23 09:32 60.81643 -148.37387 33985 ft 438 kts 119°
2026-04-23 09:32 60.80579 -148.31510 34258 ft 441 kts 119°
2026-04-23 09:32 60.79509 -148.25606 34540 ft 444 kts 119°
2026-04-23 09:33 60.78431 -148.19663 34844 ft 446 kts 119°
2026-04-23 09:33 60.77346 -148.13702 35122 ft 448 kts 119°
2026-04-23 09:33 60.76251 -148.07715 35230 ft 450 kts 119°
2026-04-23 09:34 60.74054 -147.95753 35271 ft 451 kts 118°
2026-04-23 09:34 60.71834 -147.83760 35271 ft 451 kts 118°
2026-04-23 09:35 60.69610 -147.71800 35269 ft 451 kts 119°
2026-04-23 09:35 60.67373 -147.59855 35267 ft 450 kts 119°
2026-04-23 09:36 60.65131 -147.47950 35265 ft 449 kts 119°
2026-04-23 09:36 60.62880 -147.36073 35312 ft 449 kts 119°
2026-04-23 09:37 60.60616 -147.24206 35356 ft 450 kts 119°
2026-04-23 09:37 60.58338 -147.12332 35366 ft 451 kts 119°
2026-04-23 09:38 60.56051 -147.00477 35361 ft 451 kts 118°
2026-04-23 09:38 60.53748 -146.88623 35366 ft 451 kts 118°
2026-04-23 09:39 60.51435 -146.76781 35369 ft 451 kts 118°
2026-04-23 09:39 60.49113 -146.64957 35372 ft 452 kts 118°
2026-04-23 09:40 60.47008 -146.52906 35373 ft 458 kts 109°
2026-04-23 09:40 60.45857 -146.40118 35375 ft 461 kts 107°
2026-04-23 09:41 60.44472 -146.27481 35380 ft 459 kts 109°
2026-04-23 09:41 60.43034 -146.14907 35402 ft 459 kts 109°
2026-04-23 09:42 60.41601 -146.02301 35409 ft 459 kts 108°
2026-04-23 09:42 60.40169 -145.89814 35408 ft 461 kts 109°
2026-04-23 09:43 60.38686 -145.77070 35407 ft 461 kts 109°
2026-04-23 09:43 60.37208 -145.64443 35406 ft 461 kts 109°
2026-04-23 09:44 60.35717 -145.51826 35405 ft 462 kts 109°
2026-04-23 09:44 60.34213 -145.39215 35403 ft 462 kts 109°
2026-04-23 09:45 60.32697 -145.26595 35402 ft 463 kts 109°
2026-04-23 09:45 60.31163 -145.13975 35401 ft 464 kts 109°
2026-04-23 09:46 60.29614 -145.01334 35401 ft 464 kts 108°
2026-04-23 09:46 60.28053 -144.88692 35399 ft 464 kts 108°
2026-04-23 09:47 60.26480 -144.76063 35398 ft 465 kts 108°
2026-04-23 09:47 60.24890 -144.63419 35397 ft 466 kts 108°
2026-04-23 09:48 60.23270 -144.50790 35395 ft 466 kts 108°
2026-04-23 09:48 60.21655 -144.38161 35393 ft 466 kts 108°
2026-04-23 09:49 60.20038 -144.25551 35393 ft 467 kts 108°
2026-04-23 09:49 60.18402 -144.12947 35390 ft 465 kts 108°
2026-04-23 09:50 60.16749 -144.00349 35391 ft 466 kts 108°
2026-04-23 09:50 60.15089 -143.87774 35390 ft 466 kts 108°
2026-04-23 09:51 60.13417 -143.75208 35390 ft 466 kts 108°
2026-04-23 09:51 60.11730 -143.62657 35390 ft 466 kts 108°
2026-04-23 09:52 60.10031 -143.50094 35390 ft 467 kts 108°
2026-04-23 09:52 60.08322 -143.37558 35393 ft 466 kts 109°
2026-04-23 09:53 60.06600 -143.25041 35392 ft 465 kts 109°
2026-04-23 09:53 60.04887 -143.12671 35394 ft 465 kts 109°
2026-04-23 09:54 60.03143 -143.00194 35394 ft 466 kts 109°
2026-04-23 09:54 60.01387 -142.87727 35394 ft 465 kts 108°
2026-04-23 09:55 59.99626 -142.75320 35401 ft 464 kts 109°
2026-04-23 09:55 59.97849 -142.62967 35401 ft 463 kts 109°
2026-04-23 09:55 59.96958 -142.56814 35191 ft 459 kts 109°
2026-04-23 09:56 59.96082 -142.50728 34635 ft 454 kts 109°
2026-04-23 09:56 59.95208 -142.44675 33964 ft 454 kts 109°
2026-04-23 09:56 59.94331 -142.38645 33325 ft 452 kts 109°
2026-04-23 09:56 59.93455 -142.32636 32715 ft 450 kts 109°
2026-04-23 09:57 59.92583 -142.26663 32127 ft 447 kts 109°
2026-04-23 09:57 59.91713 -142.20736 31553 ft 445 kts 108°
2026-04-23 09:57 59.90827 -142.14746 30986 ft 459 kts 107°
2026-04-23 09:57 59.89912 -142.08581 30401 ft 465 kts 107°
2026-04-23 09:58 59.89002 -142.02453 29810 ft 458 kts 107°
2026-04-23 09:58 59.88102 -141.96401 29224 ft 453 kts 107°
2026-04-23 09:58 59.87210 -141.90428 28648 ft 448 kts 108°
2026-04-23 09:58 59.86609 -141.86424 28253 ft 445 kts 108°
2026-04-23 09:59 59.85726 -141.80557 27675 ft 440 kts 108°
2026-04-23 09:59 59.84867 -141.74880 27123 ft 436 kts 108°
2026-04-23 09:59 59.83977 -141.69017 26554 ft 431 kts 107°
2026-04-23 09:59 59.83103 -141.63276 26014 ft 440 kts 108°
2026-04-23 10:00 59.82201 -141.57373 25455 ft 447 kts 108°
2026-04-23 10:00 59.81304 -141.51506 24890 ft 441 kts 108°
2026-04-23 10:00 59.80417 -141.45718 24326 ft 435 kts 108°
2026-04-23 10:00 59.79537 -141.40009 23775 ft 429 kts 108°
2026-04-23 10:01 59.78677 -141.34454 23238 ft 424 kts 108°
2026-04-23 10:01 59.77813 -141.28894 22702 ft 419 kts 108°
2026-04-23 10:01 59.76959 -141.23416 22174 ft 413 kts 108°
2026-04-23 10:01 59.76114 -141.18001 21653 ft 408 kts 108°
2026-04-23 10:02 59.75276 -141.12653 21139 ft 403 kts 108°
2026-04-23 10:02 59.74446 -141.07376 20631 ft 398 kts 108°
2026-04-23 10:02 59.73626 -141.02171 20130 ft 393 kts 109°
2026-04-23 10:02 59.72814 -140.97036 19636 ft 388 kts 109°
2026-04-23 10:03 59.72010 -140.91963 19149 ft 384 kts 109°
2026-04-23 10:03 59.71207 -140.86919 18669 ft 388 kts 109°
2026-04-23 10:03 59.70380 -140.81747 18179 ft 394 kts 109°
2026-04-23 10:03 59.69556 -140.76599 17681 ft 390 kts 108°
2026-04-23 10:04 59.68741 -140.71519 17184 ft 384 kts 108°
2026-04-23 10:04 59.67937 -140.66514 16697 ft 379 kts 109°
2026-04-23 10:04 59.67142 -140.61582 16215 ft 374 kts 109°
2026-04-23 10:04 59.66355 -140.56718 15746 ft 369 kts 109°
2026-04-23 10:05 59.65575 -140.51917 15280 ft 364 kts 109°
2026-04-23 10:05 59.64801 -140.47162 14822 ft 364 kts 108°
2026-04-23 10:05 59.64008 -140.42309 14363 ft 376 kts 108°
2026-04-23 10:05 59.63205 -140.37397 13887 ft 374 kts 108°
2026-04-23 10:06 59.62408 -140.32534 13410 ft 369 kts 108°
2026-04-23 10:06 59.61621 -140.27746 12940 ft 364 kts 108°
2026-04-23 10:06 59.60843 -140.23027 12479 ft 359 kts 108°
2026-04-23 10:06 59.59983 -140.18439 12019 ft 354 kts 118°
2026-04-23 10:07 59.58591 -140.14511 11601 ft 347 kts 132°
2026-04-23 10:07 59.56963 -140.11088 11304 ft 337 kts 138°
2026-04-23 10:07 59.55325 -140.07901 11144 ft 325 kts 137°
2026-04-23 10:07 59.53770 -140.04787 11002 ft 313 kts 136°
2026-04-23 10:08 59.52283 -140.01754 10860 ft 304 kts 136°
2026-04-23 10:08 59.50826 -139.98729 10495 ft 308 kts 135°
2026-04-23 10:08 59.49363 -139.95690 10239 ft 300 kts 135°
2026-04-23 10:09 59.46539 -139.89856 9344 ft 293 kts 136°
2026-04-23 10:09 59.45134 -139.86973 8862 ft 291 kts 135°
2026-04-23 10:09 59.43744 -139.84123 8430 ft 287 kts 136°
2026-04-23 10:09 59.42377 -139.81320 8025 ft 282 kts 136°
2026-04-23 10:10 59.41033 -139.78565 7639 ft 277 kts 136°
2026-04-23 10:10 59.39716 -139.75868 7268 ft 271 kts 135°
2026-04-23 10:10 59.38426 -139.73233 6898 ft 265 kts 135°
2026-04-23 10:10 59.37163 -139.70656 6551 ft 260 kts 135°
2026-04-23 10:11 59.35920 -139.68123 6212 ft 256 kts 135°
2026-04-23 10:11 59.34694 -139.65626 5873 ft 252 kts 135°
2026-04-23 10:11 59.33469 -139.63134 5536 ft 249 kts 135°
2026-04-23 10:11 59.32279 -139.60714 5207 ft 245 kts 135°
2026-04-23 10:12 59.31105 -139.58325 4870 ft 242 kts 134°
2026-04-23 10:12 59.30217 -139.55501 4316 ft 248 kts 105°
2026-04-23 10:12 59.30167 -139.52192 3954 ft 243 kts 75°
2026-04-23 10:12 59.30888 -139.49293 3663 ft 235 kts 51°
2026-04-23 10:13 59.31952 -139.46919 3343 ft 230 kts 44°
2026-04-23 10:13 59.33074 -139.44744 3089 ft 223 kts 43°
2026-04-23 10:13 59.34155 -139.42636 2982 ft 219 kts 44°
2026-04-23 10:13 59.35314 -139.40677 2823 ft 222 kts 26°
2026-04-23 10:14 59.36756 -139.40110 2661 ft 207 kts 352°
2026-04-23 10:14 59.38049 -139.41041 2431 ft 191 kts 323°
2026-04-23 10:14 59.38987 -139.42655 2224 ft 168 kts 315°
2026-04-23 10:14 59.39770 -139.44167 2106 ft 149 kts 315°
2026-04-23 10:15 59.40512 -139.45603 2022 ft 150 kts 315°
2026-04-23 10:15 59.41251 -139.47038 1947 ft 149 kts 315°
2026-04-23 10:15 59.41976 -139.48461 1870 ft 149 kts 315°
2026-04-23 10:15 59.42721 -139.49925 1784 ft 150 kts 315°
2026-04-23 10:16 59.43448 -139.51350 1699 ft 150 kts 315°
2026-04-23 10:16 59.44184 -139.52794 1612 ft 149 kts 315°
2026-04-23 10:16 59.44920 -139.54238 1471 ft 150 kts 315°
2026-04-23 10:16 59.45658 -139.55687 1255 ft 150 kts 315°
2026-04-23 10:17 59.46397 -139.57139 1039 ft 150 kts 316°
2026-04-23 10:17 59.47141 -139.58598 825 ft 151 kts 316°
2026-04-23 10:17 59.47887 -139.60065 616 ft 152 kts 316°
2026-04-23 10:17 59.48630 -139.61524 397 ft 151 kts 316°
2026-04-23 10:18 59.49374 -139.62982 148 ft 151 kts 316°
2026-04-23 10:18 59.50099 -139.64411 43 ft 137 kts 317°
2026-04-23 10:18 59.50610 -139.65408 43 ft 70 kts 316°
2026-04-23 10:18 59.50849 -139.65879 43 ft 44 kts 316°
2026-04-23 10:19 59.50981 -139.66201 43 ft 12 kts 250°
2026-04-23 10:19 59.50931 -139.66320 43 ft 11 kts 226°
2026-04-23 10:19 59.50856 -139.66476 43 ft 17 kts 226°
2026-04-23 10:19 59.50791 -139.66612 43 ft 9 kts 231°
2026-04-23 10:20 59.50823 -139.66694 43 ft 18 kts 330°
2026-04-23 10:20 59.50917 -139.66788 43 ft 6 kts
2026-04-23 10:20 59.50933 -139.66760 43 ft 0 kts 45°